CAPE
727 610 1000 1264 1447 1820 1644 1775 1654 1603 1233 636 641 867 360 477 419 557 595 580 903 1213 1299 1401 1391 1714 1799 1822 1516 1342 1220 1044 951 1209 1387 1450 1656 1643 1590 1633 1584 1553 1611
1103 665 1061 1097 1147 1618 1805 1820 1956 1769 1601 918 1148 524 332 307 807 906 1054 1307 816 1110 1244 1355 1471 1732 1456 1019 912 941 984 1239 1213 758 795 1067 1316 1141 1650 1689 1658 1577 1645
1118 962 724 908 1125 1610 2160 2206 2081 1958 1284 967 823 734 631 743 943 1580 1501 1429 1614 1316 1132 1375 1459 1271 932 983 686 730 717 878 1085 1163 790 768 1171 1227 1367 1425 1561 1594 1478
655 1012 608 720 709 1591 1838 1773 1809 1575 1440 787 462 772 696 846 835 1384 1352 1539 1662 1663 1390 1365 1326 1414 1343 1046 833 619 742 765 792 1010 998 1050 694 846 1048 846 1375 1437 1543
381 609 415 502 892 1374 1580 1539 1765 1286 980 558 426 491 474 721 330 733 1041 1635 1690 1490 1634 1438 1084 905 1336 1264 952 819 997 812 793 793 862 896 938 906 1171 1022 1320 1348 1437
201 554 368 434 674 577 1546 1723 1778 1252 834 784 301 330 353 910 922 827 748 1318 1742 1720 1429 1800 1575 1256 480 738 815 1023 890 589 817 647 585 670 760 796 828 957 1055 1049 1160
1186 803 316 338 564 450 1776 2132 1552 1425 1167 991 841 479 570 779 593 946 1414 1430 1633 1153 1485 1771 1482 1374 1023 430 532 684 570 870 852 712 630 547 643 765 773 574 821 1026 909
1424 966 639 650 516 1014 2058 2095 1982 1197 1215 1281 1245 1016 782 940 890 804 732 985 1353 1237 985 1369 1457 1673 1304 917 390 309 296 543 970 775 624 636 688 743 794 814 937 928 763
1520 1184 926 742 496 1271 1768 2114 2283 2042 1386 1517 1503 1266 813 475 1053 498 438 673 499 755 567 539 942 1564 1448 1139 1131 532 126 291 745 802 709 572 692 721 759 773 829 727 589
1696 1343 752 478 268 1385 1952 2084 1913 1986 1811 1346 1603 804 1328 1082 792 459 421 477 515 638 886 614 753 1298 1528 1118 432 88 160 192 477 593 700 624 610 685 786 685 559 474 420
1980 1475 1276 1183 1048 1667 2010 1755 1641 1984 1741 1369 1341 1211 1700 1160 908 733 423 728 848 1062 784 550 620 874 1351 1252 1118 207 84 0 116 309 340 613 685 711 632 634 565 453 436
1235 1750 1616 1725 1820 1962 1913 1689 1597 1960 2016 1668 1346 1234 1104 1254 1236 913 377 535 769 953 958 1016 762 698 984 1190 660 49 55 0 0 0 20 172 500 579 741 720 679 653 595
710 1118 1952 1964 1368 1744 2079 1672 1665 1631 1764 1928 1866 1138 1104 1219 1489 1345 778 593 622 850 1001 872 272 215 583 1153 1017 647 31 0 0 0 0 0 41 302 520 640 646 592 481
786 1284 1334 1491 1835 1764 1850 1344 1235 1093 1431 1554 1679 1288 1055 1021 996 1333 814 912 441 686 881 1201 573 481 813 1184 843 480 301 0 0 0 0 0 0 0 6 55 112 168 251
1111 1219 1352 1621 1835 1517 1714 1124 992 983 1073 1052 1133 1268 1087 1010 1087 963 1040 1115 952 491 346 1069 776 581 793 1076 871 807 838 0 0 1 0 0 0 0 0 0 0 0 0
1071 1359 1474 1658 1165 1034 1433 1042 1112 934 1152 1018 847 1235 1181 1216 971 873 783 736 701 499 389 461 733 840 748 877 871 1221 746 0 0 0 0 0 0 0 0 0 0 0 0
834 845 1391 1576 1271 908 884 1163 1226 1012 921 794 765 1032 1079 1221 829 870 722 722 682 655 272 981 1032 1099 1177 956 813 1023 476 472 0 0 0 0 0 0 0 0 0 0 0
885 1189 1465 1409 1412 1429 1508 1089 1005 820 773 815 993 958 1010 847 1146 934 635 865 900 690 439 1024 1010 1060 1297 865 877 812 429 100 82 0 0 0 0 0 0 0 0 0 0
1314 1394 1324 1066 806 994 1068 943 1038 1179 1128 721 766 818 903 909 994 755 945 724 712 740 671 483 1069 912 1117 807 388 465 347 179 1 0 0 0 2 2 0 0 0 0 0
1406 1308 1426 949 772 796 1002 1102 1121 1026 1057 890 1114 1289 1293 930 925 1067 896 867 766 690 645 587 382 169 1218 868 726 608 286 211 34 0 0 0 0 0 0 0 1 0 0
1385 1276 1410 1036 911 1011 1029 1373 1123 1168 1337 1132 1132 1336 1283 835 351 343 737 882 334 531 454 604 283 391 327 807 507 333 413 132 23 12 0 0 0 0 0 0 0 0 0
1266 1187 1295 1040 959 868 48 0 246 927 1264 1264 1287 1302 1384 228 1 6 27 14 33 223 213 169 84 84 257 473 456 257 127 74 74 8 0 1 0 0 0 0 0 0 0
869 1022 1159 1110 1168 1243 0 0 0 665 965 1032 859 1255 1201 516 377 81 0 0 0 0 0 22 82 163 492 333 345 293 165 162 79 2 5 0 0 0 0 0 0 0 0
928 1122 1243 1125 745 23 0 0 35 730 561 346 205 218 409 307 153 358 40 0 0 0 0 0 0 0 0 0 24 135 198 16 2 0 0 2 0 0 0 1 0 0 0
97 78 195 208 56 4 0 0 9 291 193 20 1 0 46 114 0 1 1 0 0 0 0 0 0 0 0 0 0 52 86 28 4 4 0 1 1 2 0 1 4 0 0
1 1 2 4 0 4 0 0 0 74 57 1 2 0 0 0 0 0 0 0 0 0 0 0 0 0 0 0 0 0 5 27 0 1 0 2 4 0 3 0 1 0 0
CIN
-14 -19 -34 -7 -10 -11 -6 -9 -21 -23 -39 -52 -35 -21 -22 -6 -52 -53 -32 -122 -114 -68 -45 -32 -29 -11 -5 -2 -4 -5 -5 -8 -7 -5 -4 -0 -0 -0 -0 -0 -0 -3 -2
-17 -32 -32 -20 -18 -6 -3 -11 -24 -25 -39 -44 -8 -50 -77 -80 -53 -58 -17 -37 -97 -69 -47 -36 -18 -8 -10 -24 -29 -25 -12 -3 -7 -18 -11 -5 -1 -5 -0 -0 -0 -1 -1
-41 -56 -36 -27 -23 -20 -24 -16 -29 -26 -34 -43 -55 -58 -61 -82 -65 -29 -8 -6 -5 -38 -42 -32 -24 -24 -33 -17 -53 -58 -57 -13 -7 -4 -14 -7 -3 -0 -0 -0 -1 -0 -2
-74 -57 -39 -36 -67 -27 -11 -5 -14 -7 -17 -41 -51 -34 -55 -55 -100 -48 -12 -3 -1 -1 -34 -34 -32 -20 -8 -14 -20 -56 -27 -10 -4 -2 -7 -3 -13 -7 -5 -14 -2 -1 -0
-80 -54 -48 -59 -57 -17 -9 -7 -11 -33 -25 -45 -55 -69 -60 -85 -134 -80 -53 -10 -0 -2 -1 -35 -37 -54 -21 -2 -7 -10 -0 -4 -3 -4 -5 -2 -1 -3 -2 -4 -0 -1 -1
-94 -70 -60 -74 -57 -34 -2 -6 -28 -43 -33 -39 -43 -56 -54 -36 -55 -105 -69 -7 -0 -0 -1 -0 -2 -12 -69 -48 -25 -0 -0 -7 -3 -13 -20 -7 -4 -5 -3 -2 -2 -5 -3
-29 -63 -55 -75 -52 -47 -7 -12 -22 -34 -17 -52 -43 -38 -47 -34 -32 -23 -16 -11 -2 -4 -0 -0 -1 -0 -10 -51 -49 -25 -17 -1 -1 -4 -8 -11 -10 -4 -7 -21 -17 -5 -8
-21 -35 -51 -33 -57 -12 -3 -4 -19 -12 -13 -25 -4 -9 -2 -12 -6 -7 -38 -24 -16 -0 -1 -0 -1 -0 -0 -1 -44 -68 -48 -3 -1 -0 -3 -2 -6 -4 -6 -13 -5 -4 -5
-13 -30 -44 -40 -56 -21 -1 -2 -2 -12 -1 -8 -36 -7 -3 -2 -1 -31 -46 -24 -39 -1 -6 -29 -12 -0 -0 -1 -16 -36 -95 -26 -0 -0 -0 -2 -1 -1 -10 -17 -8 -10 -15
-5 -17 -45 -56 -79 -8 -2 -1 -1 -2 -6 -1 -2 -19 -16 -18 -1 -1 -19 -26 -34 -33 -5 -3 -13 -2 -0 -0 -46 -118 -94 -61 -1 -0 -0 -1 -2 -0 -0 -16 -38 -39 -35
-0 -8 -14 -21 -26 -2 -7 -12 -4 -3 -1 -2 -2 -1 -6 -2 -27 -1 -2 -1 -1 -1 -5 -5 -2 -0 -0 -0 -1 -37 -120 -0 -60 -13 -6 -0 -0 -0 -0 -1 -15 -34 -32
-1 -6 -2 -6 -7 -1 -5 -4 -5 -1 -1 -4 -1 -3 -1 -1 -0 -1 -11 -12 -7 -1 -1 -1 -0 -1 -1 -0 -28 -32 -140 -0 -0 -0 -43 -24 -0 -0 -0 -0 -0 -0 -0
-1 -4 -4 -6 -5 -9 -3 -10 -7 -0 -0 -1 -1 -1 -2 -1 -1 -0 -5 -11 -1 -1 -1 -7 -48 -44 -6 -0 -8 -36 -153 -0 -0 -0 -0 -0 -38 -8 -1 -0 -0 -0 -0
-4 -1 -6 -1 -3 -7 -4 -9 -1 -1 -2 -1 -0 -5 -1 -1 -2 -1 -11 -11 -3 -0 -2 -1 -24 -14 -1 -1 -25 -49 -62 -0 -0 -0 -0 -0 -0 -0 -9 -69 -31 -12 -2
-2 -10 -2 -3 -1 -7 -1 -2 -1 -6 -8 -5 -0 -1 -9 -0 -1 -0 -1 -7 -0 -3 -12 -5 -1 -12 -1 -1 -18 -4 -1 -0 -0 -54 -0 -0 -0 -0 -0 -0 -0 -0 -0
-4 -0 -3 -9 -7 -18 -3 -1 -4 -2 -0 -2 -1 -0 -4 -0 -2 -1 -1 -1 -2 -4 -5 -1 -1 -3 -1 -0 -11 -1 -18 -0 -0 -0 -0 -0 -0 -0 -0 -0 -0 -0 -0
-18 -9 -1 -8 -1 -9 -9 -4 -6 -1 -2 -1 -9 -1 -1 -1 -2 -2 -0 -12 -9 -1 -1 -3 -1 -12 -5 -2 -3 -0 -18 -4 -0 -0 -0 -0 -0 -0 -0 -0 -0 -0 -0
-11 -6 -5 -14 -6 -4 -5 -18 -6 -1 -1 -2 -1 -1 -0 -1 -1 -2 -2 -14 -0 -2 -1 -0 -5 -2 -0 -14 -7 -1 -5 -24 -13 -0 -0 -0 -0 -0 -0 -0 -0 -0 -0
-1 -1 -10 -5 -15 -3 -0 -13 -3 -1 -1 -1 -1 -1 -0 -0 -1 -1 -1 -1 -2 -1 -1 -5 -0 -1 -1 -8 -29 -10 -10 -16 -0 -0 -0 -0 -0 -0 -0 -0 -0 -0 -0
-0 -1 -2 -0 -8 -13 -0 -0 -1 -0 -0 -0 -0 -0 -1 -1 -1 -0 -1 -3 -2 -3 -3 -3 -20 -29 -0 -3 -0 -0 -5 -4 -12 -0 -0 -0 -0 -0 -0 -0 -0 -0 -0
-0 -0 -0 -1 -1 -0 -1 -0 -1 -1 -0 -1 -0 -0 -0 -22 -53 -60 -7 -7 -26 -8 -10 -1 -1 -3 -7 -0 -6 -15 -0 -14 -34 -10 -0 -0 -0 -0 -0 -0 -0 -0 -0
-0 -0 -1 -1 -1 -1 -125 -0 -66 -1 -0 -0 -0 -1 -0 -92 -3 -217 -164 -194 -142 -35 -25 -25 -36 -26 -11 -1 -6 -18 -27 -22 -10 -0 -0 -1 -0 -0 -0 -0 -0 -0 -0
-3 -1 -0 -0 -0 -0 -0 -0 -0 -8 -0 -0 -5 -0 -0 -26 -38 -124 -0 -0 -0 -0 -0 -77 -33 -31 -1 -9 -7 -6 -15 -5 -10 -41 -21 -0 -0 -0 -0 -0 -0 -0 -0
-9 -1 -0 -0 -2 -42 -0 -0 -99 -0 -0 -8 -26 -32 -9 -19 -54 -9 -88 -0 -0 -0 -0 -0 -0 -0 -0 -0 -25 -17 -0 -47 -0 -0 -0 -0 -0 -0 -0 -0 -0 -0 -0
-59 -62 -18 -17 -51 -0 -0 -0 -77 -1 -14 -54 -0 -0 -49 -20 -0 -22 -0 -0 -0 -0 -0 -0 -0 -0 -0 -0 -0 -28 -10 -18 -36 -0 -0 -0 -0 -0 -0 -0 -0 -0 -0
-0 -0 -0 -0 -0 -0 -0 -0 -0 -8 -5 -0 -0 -0 -0 -0 -0 -0 -0 -0 -0 -0 -0 -0 -0 -0 -0 -0 -0 -0 -26 -6 -0 -0 -0 -0 -0 -0 -0 -0 -0 -0 -0
Wind_Speed
16 16 16 15 13 15 18 18 17 15 12 12 11 9 13 11 9 14 17 17 18 18 19 17 21 19 17 18 18 19 19 20 20 20 22 23 24 28 30 32 32 32 31
15 15 17 14 13 13 15 16 16 13 10 14 16 17 17 10 10 13 13 18 19 19 19 17 17 22 20 19 18 19 20 21 21 21 23 23 23 26 30 31 32 32 31
16 17 15 13 14 14 15 16 14 15 12 14 17 21 20 20 12 10 15 14 18 18 18 16 16 21 20 19 18 19 20 20 20 21 21 23 24 25 28 31 32 32 30
16 18 15 14 14 14 15 16 14 12 10 14 17 19 21 16 12 12 13 13 14 12 16 17 17 18 21 20 18 19 20 20 20 20 21 23 24 25 27 30 32 31 29
14 17 15 14 16 15 16 16 15 11 11 14 17 17 18 17 16 15 15 13 13 13 14 18 17 20 21 18 15 16 18 19 18 17 18 20 22 24 27 30 31 30 28
18 18 18 17 16 17 10 12 16 12 10 12 15 16 14 14 14 16 19 13 14 14 15 15 15 20 22 17 14 14 17 16 16 15 16 19 20 20 22 26 29 28 26
19 19 19 12 18 19 17 17 14 14 15 14 13 15 16 15 16 15 16 16 15 15 15 15 14 13 19 18 20 11 12 13 14 13 13 16 17 18 20 22 27 26 24
19 18 18 13 15 15 18 18 13 9 13 15 10 13 14 17 15 16 17 14 13 13 15 15 14 15 14 15 6 8 6 6 8 9 10 12 13 15 16 17 16 21 18
17 16 19 20 17 18 13 12 13 16 16 14 11 10 10 12 15 15 16 13 12 14 16 14 16 17 16 16 17 19 8 6 5 6 8 10 11 12 13 8 3 5 8
15 13 14 11 21 17 14 12 14 16 16 17 12 12 11 10 10 15 17 13 14 14 16 16 16 16 16 16 16 13 10 7 6 6 6 8 10 10 11 6 7 8 8
16 13 12 11 15 18 15 15 16 16 14 14 12 12 12 11 13 11 11 15 13 14 16 15 14 16 17 16 18 20 18 14 6 6 6 6 8 9 8 8 5 10 10
7 8 9 11 11 14 14 16 16 16 17 17 17 7 13 12 12 13 11 10 13 14 15 14 14 16 16 17 16 21 19 19 18 8 8 9 10 9 9 9 9 9 9
19 6 9 8 9 13 17 19 19 19 17 12 15 17 12 13 13 13 15 12 14 15 16 15 16 16 16 16 18 19 19 19 19 17 11 10 10 11 11 11 10 11 10
7 10 17 12 13 15 17 18 20 18 14 13 11 17 13 13 14 14 9 12 13 14 15 15 15 16 16 15 16 17 18 18 19 19 18 19 15 12 10 10 10 9 10
9 6 2 19 18 22 20 15 15 15 15 16 15 15 16 12 17 17 12 15 13 13 12 14 13 14 15 16 16 16 16 17 17 17 18 18 17 16 14 12 11 11 11
23 16 5 18 20 23 22 15 12 12 13 11 15 16 16 17 13 8 19 17 14 6 12 15 15 14 14 14 14 15 16 16 16 15 15 15 15 15 14 13 12 11 11
22 25 23 19 16 16 16 12 16 17 12 15 18 14 17 15 16 14 14 17 20 13 12 17 15 14 15 12 13 12 13 13 15 15 15 15 15 15 15 15 15 14 13
24 23 23 24 21 21 16 12 13 18 16 15 16 18 18 16 13 13 11 14 16 17 20 16 14 13 14 12 12 11 13 14 15 15 15 16 16 17 17 18 17 16 13
21 22 23 23 21 20 19 14 16 14 15 18 19 19 16 15 14 17 15 15 14 16 16 17 15 14 15 11 12 13 13 14 15 14 15 16 16 17 18 19 20 20 19
19 18 17 20 23 23 20 15 15 16 17 18 18 19 18 17 16 17 14 12 13 15 13 15 15 15 15 13 14 14 12 13 13 13 16 15 16 18 18 21 21 20 19
18 18 17 16 17 17 16 16 17 19 18 19 19 18 18 17 17 17 15 14 15 14 17 17 12 14 12 12 12 14 17 14 15 15 14 15 17 18 20 21 21 20 19
20 21 20 18 18 18 17 19 19 20 19 20 20 19 14 15 15 15 14 15 18 17 19 19 19 16 14 14 14 15 15 14 15 11 11 15 16 18 19 20 19 19 19
22 22 21 20 18 17 19 19 18 19 19 18 19 18 14 15 14 14 15 17 19 20 20 17 17 17 16 18 17 15 15 15 16 14 15 14 15 17 18 20 19 18 18
23 20 18 16 16 18 19 17 16 15 16 16 17 17 16 15 16 14 14 17 17 19 19 17 15 16 17 19 18 18 17 14 15 17 19 17 14 16 17 19 19 18 17
16 17 18 15 15 17 17 15 16 14 15 16 17 19 19 18 16 14 16 16 16 15 16 15 15 14 17 18 17 16 15 14 17 18 19 15 16 17 18 18 18 19 19
14 13 14 15 16 17 19 17 17 18 18 19 20 21 22 21 17 17 16 15 14 13 12 13 15 16 19 19 21 19 17 18 19 19 18 16 12 15 17 16 17 18 19
Wind_Direction
208 204 201 197 207 170 110 114 101 104 112 109 113 143 158 192 229 177 145 118 47 19 354 319 6 327 299 308 299 289 289 280 268 203 198 194 200 210 207 207 206 212 215
221 219 201 228 245 243 131 126 111 114 134 110 103 105 115 178 217 198 194 67 52 9 41 72 73 7 339 321 308 303 302 280 272 265 205 193 205 216 212 204 205 207 205
224 213 235 260 263 273 164 127 124 106 127 118 101 82 74 48 296 254 154 152 69 61 75 89 81 24 342 326 311 317 309 293 276 269 250 196 214 207 211 212 205 201 194
231 208 250 273 268 270 171 125 134 139 145 117 97 87 76 104 201 188 168 159 139 139 88 82 82 67 358 337 315 323 314 306 292 274 254 224 222 216 219 206 200 193 185
261 244 274 294 249 261 119 122 106 173 151 113 91 94 86 99 106 170 123 149 146 147 124 81 83 55 358 323 303 298 310 311 297 279 257 240 227 225 213 206 192 184 177
252 261 267 279 267 232 113 339 57 167 199 128 110 100 113 125 128 137 36 141 131 135 132 118 101 58 47 332 301 300 313 302 300 286 259 240 237 235 224 211 178 174 167
229 247 265 327 270 229 244 209 45 108 96 119 124 105 113 121 111 126 108 119 131 131 127 125 127 124 79 87 34 287 296 299 300 289 268 246 240 235 226 223 200 162 157
207 251 248 310 290 274 228 210 29 137 339 109 188 130 117 103 114 103 100 144 163 150 130 124 132 119 123 114 152 168 226 241 279 285 263 248 245 236 236 237 242 140 136
252 272 235 209 243 236 265 334 352 258 337 105 205 194 160 137 115 120 110 158 166 159 131 131 131 120 120 112 114 101 163 195 217 231 232 238 247 244 243 270 354 61 94
280 309 304 236 197 248 276 320 325 280 241 332 161 160 224 173 183 117 105 151 151 149 136 127 122 128 125 123 120 131 159 193 204 205 227 226 234 244 249 293 59 78 87
279 309 326 322 268 243 287 291 296 273 283 328 192 175 234 161 135 168 161 125 147 133 130 145 136 129 127 134 115 103 116 145 225 253 242 248 247 262 282 278 359 75 85
75 63 5 328 326 291 287 277 276 286 283 294 280 245 230 218 161 149 165 184 139 135 142 140 137 133 128 128 120 85 113 117 127 193 298 318 340 344 9 30 39 55 70
257 3 97 26 16 313 280 254 251 249 311 13 10 342 184 217 211 117 93 151 114 122 115 120 108 121 129 137 98 107 104 115 120 134 170 326 336 352 13 25 37 59 65
73 321 160 308 311 294 279 274 249 216 351 23 87 342 248 170 201 216 295 226 121 121 102 109 120 134 123 131 70 114 92 102 103 114 130 62 12 349 334 340 342 347 317
302 35 338 263 276 253 275 319 324 340 339 336 344 353 253 341 353 258 233 21 218 211 138 97 114 125 118 123 102 123 97 87 93 81 78 77 49 35 18 358 357 349 322
256 287 357 284 272 246 266 316 343 353 345 352 340 346 347 333 23 46 313 348 19 137 169 31 48 54 92 88 95 139 43 71 76 80 69 25 358 355 3 17 36 36 3
269 254 268 286 301 308 311 333 311 318 351 332 326 358 340 349 336 0 5 332 299 26 179 6 17 35 35 55 57 50 62 79 34 20 21 13 355 349 349 346 342 338 340
266 273 273 274 291 294 314 329 331 313 329 334 334 327 333 340 358 1 19 359 348 344 325 359 16 23 13 26 31 31 18 16 356 1 7 353 343 338 344 335 331 335 341
278 279 277 278 285 290 302 319 316 330 330 321 318 321 333 341 345 330 337 343 348 346 346 341 355 358 355 13 1 358 360 356 358 7 5 3 349 346 349 343 333 324 320
288 288 289 287 283 286 300 317 315 320 323 322 322 320 323 324 330 330 341 345 346 339 352 347 354 350 338 344 337 338 354 355 359 357 347 0 1 358 348 347 346 343 342
291 292 293 295 300 303 307 312 314 315 320 316 320 322 322 323 326 327 333 338 341 354 335 334 1 3 354 341 341 341 330 341 337 338 344 343 343 344 342 342 349 355 352
287 288 290 292 294 298 304 306 308 311 315 317 318 320 331 331 334 337 338 342 336 340 333 325 331 348 346 332 333 338 338 343 336 355 355 340 340 341 340 343 346 351 354
283 287 289 291 294 300 303 305 307 309 313 317 318 320 329 328 333 336 338 338 336 332 328 336 321 332 333 326 325 333 337 339 336 343 335 344 349 348 349 349 350 354 357
281 288 293 296 296 299 302 305 309 313 316 322 324 325 324 328 327 328 336 332 340 341 341 343 342 333 330 320 325 331 335 343 343 338 328 330 347 345 349 353 354 357 358
290 291 290 291 296 301 303 305 304 314 318 320 322 324 316 315 326 328 321 326 334 344 353 0 2 351 343 337 333 339 336 332 327 332 334 334 334 337 339 344 349 356 357
292 297 298 292 295 296 298 301 303 305 309 310 312 314 318 311 316 320 319 322 329 339 350 344 342 344 333 336 334 335 336 325 325 326 333 334 340 341 335 342 342 343 348